Hartford, CT

11:45 AM EST on November 18, 2017 (GMT -0500)
Hartford-brainard

Weather History for KHFD - January, 2013

Change the Weather History Date:

Saturday, January 5, 2013

  Actual Average Record
Temperature  
Mean Temperature 32 °F -  
Max Temperature 41 °F 35 °F 59 °F (1993)
Min Temperature 24 °F 18 °F -4 °F (1981)
Degree Days  
Heating Degree Days 32    
Moisture  
Dew Point 20 °F    
Average Humidity 59    
Maximum Humidity 85    
Minimum Humidity 43    
Precipitation  
Precipitation 0.00 in - - ()
Sea Level Pressure  
Sea Level Pressure 30.15 in    
Wind  
Wind Speed 6 mph (WSW)    
Max Wind Speed 17 mph    
Max Gust Speed 28 mph    
Visibility 10 miles    
Events      
Averages and records for this station are not official NWS values.
T = Trace of Precipitation, MM = Missing Value Source: NWS Daily Summary

Daily Weather History Graph

Daily Weather History Graph

Search for Another Location

Airport or City:

Trip Planner

Search our weather history database for the weather conditions in past years. The results will help you decide how hot, cold, wet, or windy it might be!

Date:

Astronomy

Jan. 05, 2013 Rise Set
Actual Time 7:17 AM EST 4:34 PM EST
Civil Twilight 6:46 AM EST 5:05 PM EST
Nautical Twilight 6:11 AM EST 5:40 PM EST
Astronomical Twilight 5:38 AM EST 6:14 PM EST
Moon 12:18 AM EST (1/5) 11:25 AM EST (1/5)
Length of Visible Light 10h 19m
Length of Day
9h 16m
Last Quarter, 44% of the Moon is Illuminated
Jan 5
Last Quarter
Jan 11
New
Jan 18
First Quarter
Jan 26
Full
Feb 3
Last Quarter

Hourly Weather History & Observations

Time (EST) Temp. Windchill Dew Point Humidity Pressure Visibility Wind Dir Wind Speed Gust Speed Precip Events Conditions
12:53 AM 30.0 °F 26.5 °F 17.1 °F 59% 29.94 in 10.0 mi SW 3.5 mph - N/A   Clear
1:53 AM 30.0 °F 25.2 °F 18.0 °F 61% 29.98 in 10.0 mi SW 4.6 mph - N/A   Mostly Cloudy
2:53 AM 32.0 °F 26.4 °F 18.0 °F 56% 29.99 in 10.0 mi SW 5.8 mph - N/A   Overcast
3:53 AM 32.0 °F 26.4 °F 18.0 °F 56% 30.00 in 10.0 mi SW 5.8 mph - N/A   Overcast
4:53 AM 32.0 °F 26.4 °F 19.0 °F 59% 30.01 in 10.0 mi SW 5.8 mph - N/A   Overcast
5:53 AM 33.1 °F 27.7 °F 19.9 °F 59% 30.05 in 10.0 mi SW 5.8 mph - N/A   Overcast
6:53 AM 34.0 °F 29.8 °F 19.9 °F 56% 30.08 in 10.0 mi WSW 4.6 mph - N/A   Overcast
7:53 AM 33.1 °F 27.7 °F 21.0 °F 61% 30.12 in 10.0 mi SW 5.8 mph - N/A   Overcast
8:53 AM 34.0 °F 28.0 °F 21.9 °F 61% 30.17 in 10.0 mi West 6.9 mph - N/A   Overcast
9:53 AM 36.0 °F 33.3 °F 23.0 °F 59% 30.19 in 10.0 mi SSE 3.5 mph - N/A   Mostly Cloudy
10:53 AM 39.9 °F 31.8 °F 21.9 °F 49% 30.21 in 10.0 mi NW 15.0 mph 25.3 mph N/A   Partly Cloudy
11:53 AM 39.9 °F 31.1 °F 19.9 °F 45% 30.21 in 10.0 mi NW 17.3 mph 27.6 mph N/A   Partly Cloudy
12:53 PM 41.0 °F 32.5 °F 21.0 °F 45% 30.19 in 10.0 mi NNW 17.3 mph 25.3 mph N/A   Clear
1:53 PM 39.9 °F 32.5 °F 21.0 °F 47% 30.17 in 10.0 mi NNW 12.7 mph - N/A   Clear
2:53 PM 39.9 °F 33.9 °F 19.9 °F 45% 30.19 in 10.0 mi WNW 9.2 mph - N/A   Clear
3:53 PM 39.9 °F 35.1 °F 19.0 °F 43% 30.22 in 10.0 mi West 6.9 mph - N/A   Clear
4:53 PM 37.9 °F 34.4 °F 18.0 °F 45% 30.23 in 10.0 mi WNW 4.6 mph - N/A   Clear
5:53 PM 36.0 °F - 17.1 °F 46% 30.25 in 10.0 mi Calm Calm - N/A   Clear
6:53 PM 28.9 °F - 21.0 °F 72% 30.27 in 10.0 mi Calm Calm - N/A   Clear
7:53 PM 28.0 °F - 19.9 °F 72% 30.26 in 10.0 mi Calm Calm - N/A   Clear
8:53 PM 27.0 °F - 19.0 °F 72% 30.26 in 10.0 mi Calm Calm - N/A   Clear
9:53 PM 24.1 °F - 19.9 °F 84% 30.24 in 10.0 mi Calm Calm - N/A   Clear
10:53 PM 25.0 °F - 21.0 °F 85% 30.22 in 10.0 mi Calm Calm - N/A   Clear
11:53 PM 24.1 °F - 19.9 °F 84% 30.21 in 10.0 mi Calm Calm - N/A   Clear